Location: Oso Ridge
(35.0450°N, 108.0864°W)
Time: 17:26:54
(UTC-06:00)

Amateur Radio Satellites - All Passes

Search period start: 22 July 2014 16:56
Search period end: 23 July 2014 16:56
Location: Oso Ridge, 35.0450°N, 108.0864°W

Satellite Date Start Highest point End Downlink Frequencies (MHz)
Time Altitude Azimuth
AO-7 22 Jul 16:56:41 17:05:02 80° 254° (WSW) 17:13:27 29.400 - 29.500 MHz
UOSAT-12 22 Jul 17:02:29 17:06:52 44° 304° (NW) 17:11:20 437.025 FM, 437.400 FM
KITSAT 1 22 Jul 17:05:45 17:13:43 59° 59° (ENE) 17:21:37 435.175 FM
Uosat F 22 Jul 17:12:18 17:17:07 45° 260° (W) 17:21:58 435.120 FM
RS-15 22 Jul 17:20:19 17:29:17 28° 320° (NW) 17:38:12 29.354 - 29.394 USB, Beacon 29.352 USB
JAS-1B 22 Jul 17:22:25 17:26:23 14° 276° (W) 17:30:37 435.800 - 435.900 CW/SSB
Oscar 10/S400 22 Jul 17:27:58 17:38:48 14° 151° (SSE) 17:47:45 145.825 - 145.975 CW/USB, Beacon 145.810 USB
OPAL 22 Jul 17:41:49 17:46:44 55° 289° (WNW) 17:51:41 ?
Hamsat 22 Jul 17:48:47 17:52:13 25° 71° (ENE) 17:55:39 145.90 MHz
Saudisat 1A 22 Jul 18:03:22 18:06:46 21° 51° (NE) 18:10:08 436.775 MHz
JAS-2 22 Jul 18:05:16 18:12:37 46° 70° (ENE) 18:19:48 435.800 - 435.900 CW/SSB, 435.910 FM
AO-7 22 Jul 18:55:46 18:58:50 12° 269° (W) 19:01:55 29.400 - 29.500 MHz
KITSAT 1 22 Jul 19:02:08 19:08:32 27° 255° (WSW) 19:14:55 435.175 FM
Hamsat 22 Jul 19:24:56 19:28:07 21° 265° (W) 19:31:18 145.90 MHz
HO-68 22 Jul 19:39:17 19:41:56 12° 55° (NE) 19:44:36 435.675 MHz FM
Saudisat 1A 22 Jul 19:42:25 19:46:25 34° 247° (WSW) 19:50:22 436.775 MHz
RS-15 22 Jul 19:44:20 19:47:22 11° 355° (N) 19:50:24 29.354 - 29.394 USB, Beacon 29.352 USB
JAS-2 22 Jul 19:50:36 19:57:34 35° 264° (W) 20:04:29 435.800 - 435.900 CW/SSB, 435.910 FM
SO-67 22 Jul 19:52:25 19:55:51 63° 260° (W) 19:59:18 435.3500 MHz FM
STRAND 1 22 Jul 19:53:23 19:58:30 71° 102° (ESE) 20:03:34 ?
HO-68 22 Jul 21:21:17 21:28:26 76° 72° (ENE) 21:35:37 435.675 MHz FM
STRAND 1 22 Jul 21:35:06 21:37:02 12° 297° (WNW) 21:38:57 ?
RS-15 22 Jul 21:58:27 22:06:16 21° 33° (NNE) 22:14:10 29.354 - 29.394 USB, Beacon 29.352 USB
Oscar 11 22 Jul 21:59:59 22:04:11 55° 75° (ENE) 22:08:24 145.825 FM, Beacon 2401.500 USB
MaSat-1 22 Jul 22:01:00 22:02:23 12° 98° (E) 22:03:51 437.345 MHz
FUNcube-1 22 Jul 22:03:16 22:06:33 21° 70° (ENE) 22:09:48 145.950 - 145.970 MHz USB
AO-40 22 Jul 22:49:55 04:49:39 45° 182° (S) 10:51:57 Beacon 2401.320
SO-50 22 Jul 22:56:50 23:00:45 25° 52° (NE) 23:04:42 436.795 FM
HO-68 22 Jul 23:12:27 23:16:42 17° 267° (W) 23:20:58 435.675 MHz FM
MaSat-1 22 Jul 23:35:30 23:39:03 41° 299° (WNW) 23:43:13 437.345 MHz
FUNcube-1 22 Jul 23:38:55 23:42:46 29° 263° (W) 23:46:34 145.950 - 145.970 MHz USB
RS-15 23 Jul 00:09:50 00:20:55 72° 59° (ENE) 00:32:25 29.354 - 29.394 USB, Beacon 29.352 USB
SO-50 23 Jul 00:37:02 00:41:21 35° 247° (WSW) 00:45:42 436.795 FM
Lituanica SAT-1 23 Jul 00:57:46 00:59:44 30° 321° (NW) 01:01:43 437.275 MHz beacon
UOSAT-12 23 Jul 01:34:56 01:39:38 63° 59° (ENE) 01:44:15 437.025 FM, 437.400 FM
ISS 23 Jul 01:40:16 01:43:30 50° 134° (SE) 01:46:46 145.800 FM
Sapphire 23 Jul 01:43:05 01:47:38 28° 108° (ESE) 01:52:11 437.095 MHz 1200 baud AX-25 AFSK
PCSat 23 Jul 02:16:15 02:21:35 65° 113° (ESE) 02:26:57 145.825 MHz
Oscar 19 23 Jul 02:23:22 02:28:18 44° 99° (E) 02:33:13 437.125 CW, 437.150 USB
RS-15 23 Jul 02:23:38 02:32:16 27° 256° (WSW) 02:41:14 29.354 - 29.394 USB, Beacon 29.352 USB
Oscar 16 23 Jul 02:50:23 02:55:34 89° 103° (ESE) 03:00:44 437.025 USB, Beacon 2401.1428
ITAMSAT 1 23 Jul 02:57:35 03:02:30 43° 99° (E) 03:07:22 435.822 SSB
Gurwin Techsat 1B 23 Jul 03:01:07 03:04:39 18° 93° (E) 03:08:09 435.225 FM
AO-27 23 Jul 03:14:50 03:20:00 66° 102° (ESE) 03:25:08 436.795 MHz FM
OPAL 23 Jul 03:16:44 03:20:08 19° 64° (ENE) 03:23:33 ?
JAS-1B 23 Jul 03:16:51 03:25:51 45° 96° (E) 03:33:39 435.800 - 435.900 CW/SSB
UOSAT-12 23 Jul 03:17:35 03:19:11 12° 253° (WSW) 03:20:46 437.025 FM, 437.400 FM
ISS 23 Jul 03:18:06 03:20:26 17° 330° (NNW) 03:22:47 145.800 FM
Uribyol 2 23 Jul 03:18:35 03:23:45 76° 103° (ESE) 03:28:54 436.500 FM
Sapphire 23 Jul 03:26:02 03:30:53 34° 303° (WNW) 03:35:47 437.095 MHz 1200 baud AX-25 AFSK
AO-Echo 23 Jul 03:31:59 03:37:08 80° 284° (WNW) 03:42:05 ?
PCSat 23 Jul 04:01:59 04:05:27 17° 310° (NW) 04:08:56 145.825 MHz
Oscar 19 23 Jul 04:03:42 04:07:16 19° 294° (WNW) 04:10:50 437.125 CW, 437.150 USB
TMSAT-1 23 Jul 04:19:26 04:24:45 79° 103° (ESE) 04:30:02 436.925 FM
ITAMSAT 1 23 Jul 04:37:58 04:41:39 20° 294° (WNW) 04:45:19 435.822 SSB
Gurwin Techsat 1B 23 Jul 04:39:44 04:44:49 47° 288° (WNW) 04:49:52 435.225 FM
OPAL 23 Jul 04:54:00 04:58:41 42° 259° (WSW) 05:03:23 ?
AO-27 23 Jul 04:56:29 04:58:54 13° 297° (WNW) 05:01:19 436.795 MHz FM
Uribyol 2 23 Jul 05:00:51 05:02:32 12° 298° (WNW) 05:04:13 436.500 FM
AO-7 23 Jul 05:02:20 05:10:11 44° 101° (E) 05:17:56 29.400 - 29.500 MHz
JAS-1B 23 Jul 05:07:22 05:16:05 41° 296° (WNW) 05:23:50 435.800 - 435.900 CW/SSB
Uosat F 23 Jul 05:23:05 05:28:07 73° 102° (ESE) 05:33:05 435.120 FM
TMSAT-1 23 Jul 06:02:16 06:03:57 12° 298° (WNW) 06:05:37 436.925 FM
Oscar 10/S400 23 Jul 06:10:08 07:35:51 42° 243° (WSW) 12:28:59 145.825 - 145.975 CW/USB, Beacon 145.810 USB
AO-7 23 Jul 06:55:19 07:02:46 38° 297° (WNW) 07:10:10 29.400 - 29.500 MHz
Uosat F 23 Jul 07:04:34 07:06:14 12° 298° (WNW) 07:07:53 435.120 FM
JAS-2 23 Jul 07:04:44 07:10:34 44° 97° (E) 07:15:46 435.800 - 435.900 CW/SSB, 435.910 FM
STRAND 1 23 Jul 07:05:58 07:11:06 73° 75° (ENE) 07:16:15 ?
Hamsat 23 Jul 07:12:34 07:16:52 84° 102° (ESE) 07:21:11 145.90 MHz
Lituanica SAT-1 23 Jul 07:13:47 07:15:30 20° 36° (NE) 07:17:13 437.275 MHz beacon
SO-67 23 Jul 07:21:46 07:22:41 11° 93° (E) 07:23:35 435.3500 MHz FM
KITSAT 1 23 Jul 07:29:48 07:37:45 64° 113° (ESE) 07:45:44 435.175 FM
PANSAT 23 Jul 07:53:04 07:55:50 19° 165° (SSE) 07:58:35 not established
MaSat-1 23 Jul 07:57:01 08:01:18 24° 57° (ENE) 08:05:28 437.345 MHz
Saudisat 1A 23 Jul 08:09:44 08:10:39 11° 107° (ESE) 08:11:34 436.775 MHz
ISS 23 Jul 08:12:15 08:14:40 18° 30° (NNE) 08:17:05 145.800 FM
Lituanica SAT-1 23 Jul 08:47:12 08:48:15 12° 230° (SW) 08:49:17 437.275 MHz beacon
STRAND 1 23 Jul 08:49:51 08:50:44 10° 269° (W) 08:51:37 ?
JAS-2 23 Jul 08:50:35 08:55:12 23° 297° (WNW) 08:59:27 435.800 - 435.900 CW/SSB, 435.910 FM
SO-67 23 Jul 08:52:43 08:55:50 31° 286° (WNW) 08:58:57 435.3500 MHz FM
HO-68 23 Jul 08:54:55 08:58:57 16° 92° (E) 09:02:57 435.675 MHz FM
KITSAT 1 23 Jul 09:26:55 09:33:39 28° 311° (NW) 09:40:26 435.175 FM
PANSAT 23 Jul 09:32:10 09:35:33 30° 177° (S) 09:38:57 not established
MaSat-1 23 Jul 09:33:52 09:38:50 41° 254° (WSW) 09:43:30 437.345 MHz
Saudisat 1A 23 Jul 09:45:18 09:49:40 62° 301° (WNW) 09:54:04 436.775 MHz
ISS 23 Jul 09:48:20 09:51:35 47° 226° (SW) 09:54:48 145.800 FM
Oscar 11 23 Jul 09:52:40 09:54:42 13° 93° (E) 09:56:43 145.825 FM, Beacon 2401.500 USB
Sapphire 23 Jul 10:35:16 10:37:53 14° 47° (NE) 10:40:31 437.095 MHz 1200 baud AX-25 AFSK
HO-68 23 Jul 10:40:06 10:47:15 78° 287° (WNW) 10:54:22 435.675 MHz FM
PCSat 23 Jul 11:07:57 11:12:31 27° 55° (NE) 11:17:02 145.825 MHz
PANSAT 23 Jul 11:12:09 11:15:20 25° 190° (S) 11:18:31 not established
Oscar 11 23 Jul 11:26:57 11:31:03 44° 286° (WNW) 11:35:10 145.825 FM, Beacon 2401.500 USB
FUNcube-1 23 Jul 11:30:42 11:34:50 67° 101° (E) 11:38:59 145.950 - 145.970 MHz USB
Sapphire 23 Jul 12:16:33 12:21:59 84° 245° (WSW) 12:27:24 437.095 MHz 1200 baud AX-25 AFSK
HO-68 23 Jul 12:30:58 12:33:47 13° 304° (NW) 12:36:37 435.675 MHz FM
PCSat 23 Jul 12:51:01 12:55:58 37° 251° (WSW) 13:00:53 145.825 MHz
PANSAT 23 Jul 12:53:44 12:54:57 11° 202° (SSW) 12:56:10 not established
AO-Echo 23 Jul 13:07:31 13:08:18 10° 61° (ENE) 13:09:05 ?
SO-50 23 Jul 13:10:32 13:12:56 14° 108° (ESE) 13:15:22 436.795 FM
Oscar 19 23 Jul 13:37:07 13:41:59 46° 72° (ENE) 13:46:51 437.125 CW, 437.150 USB
JAS-1B 23 Jul 13:56:45 14:03:51 30° 60° (ENE) 14:11:41 435.800 - 435.900 CW/SSB
Oscar 16 23 Jul 14:04:06 14:09:13 88° 257° (WSW) 14:14:22 437.025 USB, Beacon 2401.1428
AO-40 23 Jul 14:06:24 14:19:50 17° 208° (SSW) 14:25:33 Beacon 2401.320
ITAMSAT 1 23 Jul 14:12:21 14:17:20 47° 72° (ENE) 14:22:19 435.822 SSB
Gurwin Techsat 1B 23 Jul 14:19:09 14:23:05 22° 67° (ENE) 14:27:02 435.225 FM
RS-15 23 Jul 14:28:39 14:39:41 66° 113° (ESE) 14:50:26 29.354 - 29.394 USB, Beacon 29.352 USB
AO-27 23 Jul 14:29:40 14:34:51 72° 75° (ENE) 14:40:05 436.795 MHz FM
Uribyol 2 23 Jul 14:33:08 14:38:21 82° 76° (ENE) 14:43:34 436.500 FM
AO-Echo 23 Jul 14:40:59 14:46:13 88° 257° (WSW) 14:51:35 ?
SO-50 23 Jul 14:48:45 14:53:02 47° 303° (WNW) 14:57:25 436.795 FM
Oscar 19 23 Jul 15:18:14 15:21:31 17° 266° (W) 15:24:49 437.125 CW, 437.150 USB
KITSAT 1 23 Jul 15:27:49 15:33:18 19° 42° (NE) 15:38:45 435.175 FM
TMSAT-1 23 Jul 15:36:54 15:42:12 88° 76° (ENE) 15:47:32 436.925 FM
UOSAT-12 23 Jul 15:43:09 15:47:24 40° 114° (ESE) 15:51:45 437.025 FM, 437.400 FM
JAS-1B 23 Jul 15:45:27 15:53:31 62° 260° (W) 16:02:56 435.800 - 435.900 CW/SSB
ITAMSAT 1 23 Jul 15:53:35 15:57:00 18° 266° (W) 16:00:27 435.822 SSB
AO-7 23 Jul 15:57:39 16:05:26 45° 65° (ENE) 16:13:14 29.400 - 29.500 MHz
Gurwin Techsat 1B 23 Jul 15:57:45 16:02:44 41° 261° (W) 16:07:45 435.225 FM
AO-27 23 Jul 16:13:29 16:14:49 11° 269° (W) 16:16:09 436.795 MHz FM
Uosat F 23 Jul 16:33:00 16:38:01 71° 75° (ENE) 16:43:03 435.120 FM
